Stanton, MN

1:39 PM CDT on September 20, 2017 (GMT -0500)
Stanton

Weather History for KSYN - May, 2013

Change the Weather History Date:

Friday, May 24, 2013

  Actual Average (KLVN) Record (KLVN)
Temperature  
Mean Temperature 52 °F -  
Max Temperature 68 °F 70 °F 85 °F (1977)
Min Temperature 36 °F 50 °F 33 °F (1949)
Degree Days  
Heating Degree Days 14    
Growing Degree Days 2 (Base 50)    
Moisture  
Dew Point 39 °F    
Average Humidity 57    
Maximum Humidity 88    
Minimum Humidity 33    
Precipitation  
Precipitation 0.12 in - - ()
Sea Level Pressure  
Sea Level Pressure 30.31 in    
Wind  
Wind Speed 5 mph (SE)    
Max Wind Speed 14 mph    
Max Gust Speed 21 mph    
Visibility 10 miles    
Events Rain , Thunderstorm    
Averages and records for this station are not official NWS values.
T = Trace of Precipitation, MM = Missing Value Source: NWS Daily Summary

Daily Weather History Graph

Daily Weather History Graph

Search for Another Location

Airport or City:

Trip Planner

Search our weather history database for the weather conditions in past years. The results will help you decide how hot, cold, wet, or windy it might be!

Date:

Astronomy

May. 24, 2013 Rise Set
Actual Time 5:35 AM CDT 8:42 PM CDT
Civil Twilight 5:00 AM CDT 9:17 PM CDT
Nautical Twilight 4:15 AM CDT 10:02 PM CDT
Astronomical Twilight 3:21 AM CDT 10:57 PM CDT
Moon 8:24 PM CDT (5/24) 5:10 AM CDT (5/24)
Length of Visible Light 16h 17m
Length of Day
15h 07m
Full, 100% of the Moon is Illuminated
May 24
Full
May 24
Full
May 31
Last Quarter
Jun 8
New
Jun 16
First Quarter

Hourly Weather History & Observations

Time (CDT) Temp. Windchill Dew Point Humidity Pressure Visibility Wind Dir Wind Speed Gust Speed Precip Events Conditions
12:13 AM 46.0 °F 43.9 °F 32.5 °F 59% 30.33 in 10.0 mi East 4.6 mph - N/A   Clear
12:34 AM 47.5 °F - 32.0 °F 55% 30.34 in 10.0 mi ENE 6.9 mph - N/A   Clear
12:53 AM 43.7 °F 41.1 °F 33.3 °F 67% 30.34 in 10.0 mi ENE 4.6 mph - N/A   Clear
1:14 AM 45.0 °F - 32.2 °F 61% 30.34 in 10.0 mi Calm Calm - N/A   Clear
1:34 AM 43.5 °F - 34.0 °F 69% 30.34 in 10.0 mi Calm Calm - N/A   Clear
1:53 AM 44.8 °F - 32.0 °F 61% 30.34 in 10.0 mi Calm Calm - N/A   Clear
2:14 AM 43.0 °F 41.3 °F 32.9 °F 68% 30.34 in 10.0 mi ENE 3.5 mph - N/A   Clear
2:33 AM 42.1 °F - 33.1 °F 70% 30.34 in 10.0 mi Calm Calm - N/A   Clear
2:54 AM 42.3 °F - 32.9 °F 69% 30.34 in 10.0 mi Calm Calm - N/A   Clear
3:13 AM 43.0 °F - 32.0 °F 65% 30.34 in 10.0 mi Calm Calm - N/A   Clear
3:33 AM 42.4 °F - 32.0 °F 67% 30.35 in 10.0 mi Calm Calm - N/A   Clear
3:54 AM 38.5 °F - 33.1 °F 81% 30.34 in 10.0 mi Calm Calm - N/A   Clear
4:13 AM 39.0 °F - 33.1 °F 79% 30.35 in 10.0 mi Calm Calm - N/A   Clear
4:33 AM 38.3 °F - 32.7 °F 80% 30.35 in 10.0 mi Calm Calm - N/A   Clear
4:53 AM 38.3 °F - 33.1 °F 81% 30.35 in 10.0 mi Calm Calm - N/A   Clear
5:13 AM 37.2 °F - 33.1 °F 85% 30.35 in 10.0 mi Calm Calm - N/A   Clear
5:34 AM 36.5 °F - 33.1 °F 87% 30.36 in 10.0 mi Calm Calm - N/A   Clear
5:53 AM 36.9 °F - 33.4 °F 87% 30.36 in 10.0 mi Calm Calm - N/A   Clear
6:14 AM 36.7 °F - 33.3 °F 87% 30.37 in 10.0 mi Calm Calm - N/A   Clear
6:34 AM 38.1 °F - 34.9 °F 88% 30.37 in 10.0 mi Calm Calm - N/A   Clear
6:53 AM 40.1 °F - 36.0 °F 85% 30.37 in 10.0 mi Calm Calm - N/A   Clear
7:14 AM 42.3 °F - 36.9 °F 81% 30.38 in 10.0 mi Calm Calm - N/A   Clear
7:33 AM 46.4 °F - 36.7 °F 69% 30.38 in 10.0 mi Calm Calm - N/A   Clear
7:54 AM 49.5 °F - 35.4 °F 58% 30.38 in 10.0 mi SE 5.8 mph - N/A   Clear
8:13 AM 50.7 °F - 35.6 °F 56% 30.38 in 10.0 mi SE 6.9 mph - N/A   Clear
8:34 AM 52.0 °F - 35.4 °F 53% 30.38 in 10.0 mi ESE 10.4 mph - N/A   Clear
8:54 AM 53.2 °F - 36.3 °F 53% 30.37 in 10.0 mi SE 10.4 mph - N/A   Clear
9:13 AM 54.0 °F - 37.0 °F 53% 30.38 in 10.0 mi SE 9.2 mph - N/A   Clear
9:34 AM 55.6 °F - 37.8 °F 51% 30.37 in 10.0 mi SE 9.2 mph - N/A   Clear
9:54 AM 56.5 °F - 37.8 °F 50% 30.36 in 10.0 mi SE 8.1 mph - N/A   Clear
10:13 AM 57.9 °F - 38.8 °F 49% 30.37 in 10.0 mi SSE 9.2 mph - N/A   Clear
10:34 AM 59.0 °F - 37.9 °F 46% 30.36 in 10.0 mi SSE 6.9 mph - N/A   Clear
10:54 AM 59.9 °F - 37.9 °F 44% 30.36 in 10.0 mi SE 9.2 mph - N/A   Clear
11:13 AM 60.8 °F - 37.4 °F 42% 30.36 in 10.0 mi SE 8.1 mph - N/A   Clear
11:34 AM 61.2 °F - 37.2 °F 41% 30.35 in 10.0 mi South 9.2 mph - N/A   Clear
11:54 AM 61.7 °F - 37.2 °F 40% 30.35 in 10.0 mi SSE 8.1 mph - N/A   Clear
12:13 PM 62.1 °F - 36.3 °F 38% 30.34 in 10.0 mi SE 12.7 mph 16.1 mph N/A   Clear
12:33 PM 63.5 °F - 38.1 °F 39% 30.34 in 10.0 mi South 6.9 mph - N/A   Clear
12:54 PM 64.2 °F - 38.7 °F 39% 30.32 in 10.0 mi SE 8.1 mph 19.6 mph N/A   Clear
1:14 PM 65.1 °F - 39.7 °F 39% 30.32 in 10.0 mi South 5.8 mph 17.3 mph N/A   Clear
1:33 PM 65.1 °F - 37.6 °F 36% 30.30 in 10.0 mi SSE 10.4 mph 20.7 mph N/A   Clear
1:54 PM 65.8 °F - 38.7 °F 37% 30.29 in 10.0 mi South 11.5 mph 16.1 mph N/A   Clear
2:14 PM 66.4 °F - 36.5 °F 33% 30.27 in 10.0 mi SSE 11.5 mph 17.3 mph N/A   Clear
2:33 PM 65.7 °F - 38.3 °F 37% 30.27 in 10.0 mi SSE 11.5 mph - N/A   Clear
2:54 PM 67.1 °F - 39.2 °F 36% 30.26 in 10.0 mi SSE 12.7 mph 20.7 mph N/A   Clear
3:14 PM 67.3 °F - 38.8 °F 35% 30.25 in 10.0 mi SSE 13.8 mph - N/A   Clear
3:33 PM 67.1 °F - 40.8 °F 38% 30.25 in 10.0 mi SE 12.7 mph 18.4 mph N/A   Clear
3:54 PM 66.6 °F - 41.7 °F 40% 30.24 in 10.0 mi SSE 12.7 mph 19.6 mph N/A   Clear
4:14 PM 66.7 °F - 41.7 °F 40% 30.25 in 10.0 mi SSE 12.7 mph 18.4 mph N/A   Clear
4:33 PM 67.5 °F - 42.8 °F 41% 30.24 in 10.0 mi South 6.9 mph - N/A   Clear
4:54 PM 66.7 °F - 43.3 °F 43% 30.24 in 10.0 mi SSE 10.4 mph - N/A   Clear
5:14 PM 66.7 °F - 42.1 °F 41% 30.23 in 10.0 mi SSE 12.7 mph - N/A   Clear
5:33 PM 66.2 °F - 42.4 °F 42% 30.25 in 10.0 mi SSE 8.1 mph 16.1 mph N/A   Scattered Clouds
5:54 PM 65.3 °F - 41.7 °F 42% 30.30 in 10.0 mi SSW 10.4 mph - N/A   Scattered Clouds
6:14 PM 65.3 °F - 43.7 °F 46% 30.29 in 10.0 mi SSW 4.6 mph - N/A   Scattered Clouds
6:33 PM 65.3 °F - 43.0 °F 44% 30.27 in 10.0 mi SSE 4.6 mph - N/A   Scattered Clouds
6:54 PM 64.9 °F - 43.2 °F 45% 30.26 in 10.0 mi SSE 6.9 mph - N/A Thunderstorm Scattered Clouds
7:14 PM 64.4 °F - 42.8 °F 45% 30.23 in 10.0 mi SSE 6.9 mph - N/A   Scattered Clouds
7:33 PM 64.0 °F - 41.7 °F 44% 30.20 in 10.0 mi SSE 11.5 mph - N/A   Mostly Cloudy
7:54 PM 63.5 °F - 42.3 °F 46% 30.18 in 10.0 mi SE 11.5 mph - N/A Rain , Thunderstorm Light Thunderstorms and Rain
8:14 PM 61.0 °F - 45.0 °F 56% 30.19 in 10.0 mi SE 8.1 mph - N/A   Overcast
8:33 PM 60.8 °F - 45.0 °F 56% 30.22 in 10.0 mi Calm Calm - N/A   Overcast
8:53 PM 60.6 °F - 45.7 °F 58% 30.23 in 10.0 mi Calm Calm - N/A   Overcast
9:13 PM 58.8 °F - 48.7 °F 69% 30.22 in 10.0 mi ESE 4.6 mph - N/A   Overcast
9:34 PM 60.3 °F - 45.7 °F 59% 30.25 in 10.0 mi Calm Calm - 0.01 in Rain , Thunderstorm Rain
9:53 PM 59.0 °F - 47.5 °F 66% 30.25 in 10.0 mi SE 3.5 mph - 0.01 in Rain Light Rain
10:13 PM 57.4 °F - 47.7 °F 70% 30.25 in 10.0 mi SSE 9.2 mph - 0.03 in Rain Rain
10:34 PM 56.7 °F - 47.5 °F 71% 30.23 in 10.0 mi SE 10.4 mph - 0.08 in Rain Light Rain
10:53 PM 56.1 °F - 48.6 °F 76% 30.25 in 10.0 mi East 8.1 mph - 0.10 in Rain Rain
11:13 PM 54.7 °F - 48.6 °F 80% 30.24 in 10.0 mi ESE 6.9 mph - 0.01 in Rain Light Rain
11:34 PM 54.5 °F - 48.7 °F 81% 30.24 in 10.0 mi ESE 6.9 mph - 0.01 in   Overcast
11:53 PM 54.5 °F - 49.1 °F 82% 30.22 in 10.0 mi ESE 6.9 mph - 0.01 in Rain Light Rain